Regional Weather Roundup
Issued by NWS

Home | Current Version | Previous Version | Text Only | Print | Product List | Glossary Off
Versions: 1 2 3 4 5 6 7 8 9 10 11 12 13 14 15 16 17 18 19 20 21 22 23 24 25 26 27 28 29 30 31 32 33 34 35 36 37 38 39 40 41 42 43 44 45 46 47 48 49 50

000
ASUS43 KTOP 301608
RWRKS

WEATHER ROUNDUP FOR KANSAS
NATIONAL WEATHER SERVICE GOODLAND KS
1100 AM CDT MON MAR 30 2015

NOTE:  "FAIR" INDICATES FEW OR NO CLOUDS BELOW 12,000 FEET WITH NO
SIGNIFICANT WEATHER AND/OR OBSTRUCTIONS TO VISIBILITY.

KSZ001>006-013>018-027>032-041>047-301700-
NORTHWEST KANSAS

CITY           SKY/WX    TMP DP  RH WIND       PRES   REMARKS
GOODLAND       SUNNY     64  29  26 W10       30.09F
HAYS           SUNNY     64  36  34 S22       30.12F
HILL CITY      SUNNY     65  29  25 SW20G26   30.09F
RUSSELL        SUNNY     64  35  34 S21       30.11F
$$

KSZ061>065-074>080-084>089-301700-
SOUTHWEST KANSAS

CITY           SKY/WX    TMP DP  RH WIND       PRES   REMARKS
DODGE CITY     SUNNY     62  31  31 S23G29    30.16F
ELKHART          N/A     66  29  25 SW17        N/A
GARDEN CITY    SUNNY     65  31  28 S28G37    30.11F
GREAT BEND     SUNNY     63  37  39 S22G30    30.15F
LIBERAL        SUNNY     64  36  34 S24G30    30.18F
PRATT          SUNNY     61  34  36 S17       30.19S
$$

KSZ066>073-081>083-090>101-301700-
SOUTHEAST KANSAS

CITY           SKY/WX    TMP DP  RH WIND       PRES   REMARKS
CHANUTE        SUNNY     63  36  36 S10       30.21R
COFFEYVILLE    SUNNY     61  37  41 S10       30.22R
HUTCHINSON     SUNNY     65  31  28 S15       30.18F
MEDICINE LODGE   N/A     60  39  45 S12       30.20S
NEWTON         SUNNY     63  30  29 S13       30.21S
PARSONS        SUNNY     61  35  37 SE10G17   30.22S
WICHITA INTL   MOSUNNY   63  31  30 S12       30.19S
WICHITA JABRA  SUNNY     63  29  27 S14       30.19S
WICHITA MCCONL SUNNY     64  31  29 SE9       30.19S
WINFIELD       SUNNY     63  36  36 SE12      30.22R
$$

KSZ007>012-019>026-033>040-048>060-102>105-301700-
NORTHEAST KANSAS

CITY           SKY/WX    TMP DP  RH WIND       PRES   REMARKS
CONCORDIA      SUNNY     62  31  31 S16       30.13S
EMPORIA        PTSUNNY   61  30  31 S15       30.18S
LAWRENCE       SUNNY     61  34  36 S12       30.17S
MANHATTAN      SUNNY     63  31  30 SW17G23   30.15F
MARYSVILLE     SUNNY     61  32  33 SW13G18   30.13F
OLATHE IND     SUNNY     60  33  36 S15       30.18R
OLATHE EXE     SUNNY     61  36  39 SW10      30.17S
SALINA         SUNNY     64  31  28 S14G24    30.16F
TOPEKA BILLARD SUNNY     62  33  33 SW15G22   30.16F
TOPEKA FORBES  SUNNY     63  34  33 SW13      30.16S
$$



USA.gov is the U.S. government's official web portal to all federal, state and local government web resources and services.